Truckee-Tahoe, CA

4:54 AM PDT on April 30, 2017 (GMT -0700)
Truckee-Tahoe

Weather History for KTRK - July, 2014

Change the Weather History Date:

Thursday, July 24, 2014

  Actual Average Record
Temperature  
Mean Temperature 58 °F -  
Max Temperature 82 °F 81 °F 93 °F (1988)
Min Temperature 35 °F 43 °F 30 °F (2006)
Degree Days  
Heating Degree Days 6    
Growing Degree Days 8 (Base 50)    
Moisture  
Dew Point 37 °F    
Average Humidity 59    
Maximum Humidity 100    
Minimum Humidity 15    
Precipitation  
Precipitation 0.00 in - - ()
Sea Level Pressure  
Sea Level Pressure 30.21 in    
Wind  
Wind Speed 2 mph (WSW)    
Max Wind Speed 14 mph    
Max Gust Speed 18 mph    
Visibility 10 miles    
Events      
Averages and records for this station are not official NWS values.
T = Trace of Precipitation, MM = Missing Value Source: NWS Daily Summary

Daily Weather History Graph

Daily Weather History Graph

Search for Another Location

Airport or City:

Trip Planner

Search our weather history database for the weather conditions in past years. The results will help you decide how hot, cold, wet, or windy it might be!

Date:

Astronomy

Jul. 24, 2014 Rise Set
Actual Time 5:53 AM PDT 8:20 PM PDT
Civil Twilight 5:22 AM PDT 8:50 PM PDT
Nautical Twilight 4:45 AM PDT 9:28 PM PDT
Astronomical Twilight 4:02 AM PDT 10:10 PM PDT
Moon 4:05 AM PDT (7/24) 6:39 PM PDT (7/24)
Length of Visible Light 15h 27m
Length of Day
14h 26m
Waning Crescent, 4% of the Moon is Illuminated
Jul 24
Waning Crescent
Jul 26
New
Aug 3
First Quarter
Aug 10
Full
Aug 17
Last Quarter

Hourly Weather History & Observations

Time (PDT) Temp. Dew Point Humidity Pressure Visibility Wind Dir Wind Speed Gust Speed Precip Events Conditions
12:15 AM 46.4 °F 41.0 °F 81% 30.27 in 10.0 mi Calm Calm - N/A   Clear
12:35 AM 44.6 °F 37.4 °F 76% 30.27 in 10.0 mi Calm Calm - N/A   Clear
12:55 AM 44.6 °F 37.4 °F 76% 30.27 in 10.0 mi Calm Calm - N/A   Clear
1:15 AM 44.6 °F 37.4 °F 76% 30.27 in 10.0 mi Calm Calm - N/A   Clear
1:35 AM 42.8 °F 37.4 °F 81% 30.27 in 10.0 mi Calm Calm - N/A   Clear
1:55 AM 39.2 °F 35.6 °F 87% 30.27 in 10.0 mi Calm Calm - N/A   Clear
2:15 AM 41.0 °F 35.6 °F 81% 30.27 in 10.0 mi Calm Calm - N/A   Clear
2:35 AM 42.8 °F 37.4 °F 81% 30.27 in 10.0 mi Calm Calm - N/A   Clear
2:55 AM 42.8 °F 37.4 °F 81% 30.27 in 10.0 mi Calm Calm - N/A   Clear
3:15 AM 42.8 °F 35.6 °F 76% 30.27 in 10.0 mi Calm Calm - N/A   Clear
3:35 AM 37.4 °F 35.6 °F 93% 30.27 in 10.0 mi Calm Calm - N/A   Clear
3:55 AM 37.4 °F 35.6 °F 93% 30.26 in 10.0 mi Calm Calm - N/A   Clear
4:15 AM 37.4 °F 35.6 °F 93% 30.26 in 10.0 mi Calm Calm - N/A   Clear
4:35 AM 37.4 °F 35.6 °F 93% 30.26 in 10.0 mi Calm Calm - N/A   Clear
4:55 AM 35.6 °F 33.8 °F 93% 30.26 in 10.0 mi Calm Calm - N/A   Clear
5:15 AM 35.6 °F 33.8 °F 93% 30.25 in 10.0 mi Calm Calm - N/A   Clear
5:35 AM 37.4 °F 37.4 °F 100% 30.25 in 10.0 mi Calm Calm - N/A   Clear
5:55 AM 37.4 °F 35.6 °F 93% 30.26 in 10.0 mi Calm Calm - N/A   Clear
6:15 AM 37.4 °F 33.8 °F 87% 30.26 in 10.0 mi Calm Calm - N/A   Clear
6:35 AM 35.6 °F 33.8 °F 93% 30.26 in 10.0 mi Calm Calm - N/A   Clear
6:50 AM 39.2 °F 37.4 °F 93% 30.27 in 10.0 mi Calm Calm - N/A   Clear
7:55 AM 48.2 °F 39.2 °F 71% 30.28 in 10.0 mi Calm Calm - N/A   Clear
8:55 AM 57.2 °F 39.2 °F 51% 30.27 in 10.0 mi Calm Calm - N/A   Clear
9:50 AM 62.6 °F 37.4 °F 39% 30.26 in 10.0 mi NNE 5.8 mph - N/A   Clear
10:55 AM 71.6 °F 35.6 °F 27% 30.23 in 10.0 mi Calm Calm - N/A   Clear
11:50 AM 73.4 °F 32.0 °F 22% 30.22 in 10.0 mi WNW 4.6 mph - N/A   Clear
12:45 PM 75.2 °F 30.2 °F 19% 30.20 in 10.0 mi SSE 4.6 mph - N/A   Clear
1:50 PM 78.8 °F 30.2 °F 17% 30.19 in 10.0 mi NW 3.5 mph - N/A   Clear
2:50 PM 82.4 °F 30.2 °F 15% 30.16 in 10.0 mi West 4.6 mph - N/A   Partly Cloudy
3:45 PM 82.4 °F 33.8 °F 17% 30.15 in 10.0 mi WSW 9.2 mph 18.4 mph N/A   Clear
5:45 PM 80.6 °F 37.4 °F 21% 30.12 in 10.0 mi WNW 12.7 mph - N/A   Partly Cloudy
6:15 PM 78.8 °F 37.4 °F 23% 30.12 in 10.0 mi West 11.5 mph - N/A   Clear
6:35 PM 78.8 °F 37.4 °F 23% 30.12 in 10.0 mi West 13.8 mph - N/A   Clear
6:55 PM 77.0 °F 37.4 °F 24% 30.13 in 10.0 mi West 10.4 mph - N/A   Clear
7:15 PM 77.0 °F 39.2 °F 26% 30.13 in 10.0 mi West 9.2 mph - N/A   Clear
7:35 PM 73.4 °F 39.2 °F 29% 30.13 in 10.0 mi West 6.9 mph - N/A   Clear
7:55 PM 73.4 °F 41.0 °F 31% 30.13 in 10.0 mi West 6.9 mph - N/A   Clear
8:15 PM 69.8 °F 41.0 °F 35% 30.14 in 10.0 mi WSW 5.8 mph - N/A   Clear
8:35 PM 66.2 °F 41.0 °F 40% 30.14 in 10.0 mi SW 4.6 mph - N/A   Clear
8:55 PM 62.6 °F 41.0 °F 45% 30.15 in 10.0 mi SW 6.9 mph - N/A   Clear
9:15 PM 64.4 °F 41.0 °F 42% 30.16 in 10.0 mi Calm Calm - N/A   Clear
9:35 PM 64.4 °F 41.0 °F 42% 30.16 in 10.0 mi Calm Calm - N/A   Clear
9:55 PM 60.8 °F 41.0 °F 48% 30.17 in 10.0 mi NE 3.5 mph - N/A   Clear
10:15 PM 53.6 °F 37.4 °F 54% 30.17 in 10.0 mi South 3.5 mph - N/A   Clear
10:35 PM 55.4 °F 41.0 °F 58% 30.17 in 10.0 mi South 3.5 mph - N/A   Clear
10:55 PM 55.4 °F 41.0 °F 58% 30.17 in 10.0 mi Calm Calm - N/A   Clear
11:15 PM 55.4 °F 41.0 °F 58% 30.17 in 10.0 mi Calm Calm - N/A   Clear
11:35 PM 53.6 °F 39.2 °F 58% 30.17 in 10.0 mi Calm Calm - N/A   Clear
11:55 PM 51.8 °F 39.2 °F 62% 30.17 in 10.0 mi SSE 3.5 mph - N/A   Clear